Madison, WI

6:29 AM CST on February 06, 2016 (GMT -0600)
Dane County Regional-Truax

Weather History for KMSN - September, 2012

Change the Weather History Date:

Saturday, September 8, 2012

  Actual Average Record
Temperature  
Mean Temperature 61 °F 64 °F  
Max Temperature 72 °F 75 °F 97 °F (1978)
Min Temperature 50 °F 54 °F 37 °F (1986)
Degree Days  
Heating Degree Days 4 3  
Month to date heating degree days 5 20  
Since 1 July heating degree days 22 57  
Cooling Degree Days 0 3  
Month to date cooling degree days 53 24  
Year to date cooling degree days 1046 537  
Growing Degree Days 11 (Base 50)    
Moisture  
Dew Point 49 °F    
Average Humidity 69    
Maximum Humidity 93    
Minimum Humidity 44    
Precipitation  
Precipitation 0.39 in 0.12 in 2.79 in (1941)
Month to date precipitation 0.88 0.91  
Year to date precipitation 17.85 25.73  
Snow  
Snow 0.00 in 0.00 in 0.00 in ()
Month to date snowfall 0.0 0.0  
Since 1 July snowfall 0.0 0.0  
Since 1 September snowfall 0.0 0.0  
Snow Depth 0.00 in    
Sea Level Pressure  
Sea Level Pressure 29.88 in    
Wind  
Wind Speed 8 mph (NW)    
Max Wind Speed 24 mph    
Max Gust Speed 33 mph    
Visibility 9 miles    
Events Rain , Thunderstorm    
T = Trace of Precipitation, MM = Missing Value Source: NWS Daily Summary

Daily Weather History Graph

Daily Weather History Graph

Search for Another Location

Airport or City:

Trip Planner

Search our weather history database for the weather conditions in past years. The results will help you decide how hot, cold, wet, or windy it might be!

Date:

Astronomy

Sep. 08, 2012 Rise Set
Actual Time 6:29 AM CDT 7:19 PM CDT
Civil Twilight 6:00 AM CDT 7:47 PM CDT
Nautical Twilight 5:26 AM CDT 8:21 PM CDT
Astronomical Twilight 4:50 AM CDT 8:57 PM CDT
Moon 11:52 PM CDT (9/8) 2:23 PM CDT (9/8)
Length of Visible Light 13h 46m
Length of Day
12h 49m
Waning Gibbous, 48% of the Moon is Illuminated
Sep 8
Waning Gibbous
Sep 15
New
Sep 22
First Quarter
Sep 29
Full
Oct 8
Last Quarter

Hourly Weather History & Observations

Time (CDT) Temp. Dew Point Humidity Pressure Visibility Wind Dir Wind Speed Gust Speed Precip Events Conditions
12:53 AM 55.0 °F 46.9 °F 74% 29.91 in 10.0 mi NNW 8.1 mph - N/A   Clear
1:53 AM 54.0 °F 46.9 °F 77% 29.91 in 10.0 mi NW 5.8 mph - N/A   Clear
2:53 AM 53.1 °F 46.9 °F 80% 29.92 in 10.0 mi NW 6.9 mph - N/A   Clear
3:53 AM 52.0 °F 46.9 °F 83% 29.92 in 10.0 mi NW 6.9 mph - N/A   Clear
4:53 AM 51.1 °F 46.9 °F 86% 29.91 in 10.0 mi WNW 5.8 mph - N/A   Clear
5:53 AM 50.0 °F 46.9 °F 89% 29.92 in 10.0 mi NW 5.8 mph - N/A   Clear
6:53 AM 50.0 °F 46.9 °F 89% 29.93 in 10.0 mi Calm Calm - N/A   Partly Cloudy
7:53 AM 53.1 °F 46.9 °F 80% 29.94 in 10.0 mi WNW 8.1 mph - N/A   Partly Cloudy
8:53 AM 55.4 °F 48.2 °F 77% 29.93 in 10.0 mi NW 11.5 mph - N/A   Partly Cloudy
9:53 AM 60.1 °F 48.9 °F 67% 29.93 in 10.0 mi NNW 10.4 mph 19.6 mph N/A   Partly Cloudy
10:53 AM 63.0 °F 46.9 °F 56% 29.91 in 10.0 mi NW 11.5 mph 21.9 mph N/A   Scattered Clouds
11:53 AM 66.0 °F 46.0 °F 48% 29.90 in 10.0 mi NW 15.0 mph 20.7 mph N/A   Partly Cloudy
12:53 PM 66.9 °F 46.0 °F 47% 29.89 in 10.0 mi NW 12.7 mph 23.0 mph N/A   Partly Cloudy
1:53 PM 69.1 °F 46.9 °F 45% 29.87 in 10.0 mi NW 10.4 mph 19.6 mph N/A   Mostly Cloudy
2:53 PM 69.1 °F 46.9 °F 45% 29.84 in 10.0 mi WNW 9.2 mph 21.9 mph N/A   Partly Cloudy
3:53 PM 70.0 °F 46.0 °F 42% 29.83 in 10.0 mi WNW 9.2 mph 20.7 mph N/A   Scattered Clouds
4:53 PM 70.0 °F 46.0 °F 42% 29.81 in 10.0 mi Variable 5.8 mph 17.3 mph N/A   Partly Cloudy
5:53 PM 69.1 °F 46.0 °F 44% 29.81 in 10.0 mi Variable 6.9 mph - N/A   Mostly Cloudy
6:53 PM 69.1 °F 46.9 °F 45% 29.77 in 10.0 mi SW 4.6 mph - N/A   Mostly Cloudy
7:22 PM 66.2 °F 51.8 °F 60% 29.75 in 9.0 mi SSE 5.8 mph - 0.00 in Rain , Thunderstorm Light Thunderstorms and Rain
7:41 PM 60.8 °F 53.6 °F 77% 29.84 in 1.5 mi NNW 24.2 mph 33.4 mph 0.04 in Rain , Thunderstorm Heavy Thunderstorms and Rain
7:48 PM 57.2 °F 53.6 °F 88% 29.84 in 3.0 mi NNW 8.1 mph 33.4 mph 0.29 in Rain , Thunderstorm Thunderstorms and Rain
7:53 PM 57.9 °F 54.0 °F 87% 29.85 in 4.0 mi North 12.7 mph 21.9 mph 0.31 in Rain , Thunderstorm Light Thunderstorms and Rain
8:18 PM 57.2 °F 55.4 °F 94% 29.86 in 4.0 mi North 9.2 mph - 0.08 in Rain Light Rain
8:53 PM 55.9 °F 53.1 °F 90% 29.85 in 10.0 mi ENE 4.6 mph - 0.08 in   Light Drizzle
9:53 PM 54.0 °F 52.0 °F 93% 29.87 in 10.0 mi NW 4.6 mph - 0.00 in   Partly Cloudy
10:53 PM 53.6 °F 51.8 °F 94% 29.89 in 10.0 mi NW 4.6 mph - N/A   Mostly Cloudy
11:53 PM 54.0 °F 52.0 °F 93% 29.91 in 10.0 mi NNW 6.9 mph - N/A   Scattered Clouds